User: anonymous   Login
Location: Glens Falls
(43.3090°N, 73.6440°W)
Time: 21:13:49
(UTC-04:00)
Language:

Cosmos 1908 Rocket - Orbit

View from above orbital plane
View from above orbital plane
View from above satellite
View from above satellite

Ground track
Ground track

The orbit data is extracted from the following two-line orbital elements,

1 18749U 88001B   18113.73284784  .00000076  00000-0  63476-5 0  9997
2 18749  82.5170  13.9439 0019079  12.2327  44.2036 14.83151382636501
Epoch (UTC): 23 April 2018 17:35:18
Eccentricity: 0.0019079
inclination: 82.5170°
perigee height: 606 km
apogee height: 633 km
right ascension of ascending node: 13.9439°
argument of perigee: 12.2327°
revolutions per day: 14.83151382
mean anomaly at epoch: 44.2036°
orbit number at epoch: 63650

The dashed part of the orbit path shows where the satellite is in the earth's shadow,  

DLR